Home   Weather   Columbus Zoo   Past weeks
Flag for USA

Past Weather in Columbus Zoo, Ohio, USA — Yesterday and Last 2 Weeks

Now
54 °F

Light rain. Fog.


Feels Like: 53 °F
Forecast: 73 / 50 °F
Wind: 5 mph from Southeast

Location: John Glenn Columbus International Airport

Current Time: Apr 7, 2020 at 10:11:25 am

Latest Report: Apr 7, 2020 at 9:17 am


Visibility: 2 mi

Pressure: 29.93 "Hg

Humidity: 97%

Dew Point: 53 °F

Location of Columbus ZooLocation

Past Weather in Columbus Zoo — Graph

°F

Columbus Zoo Temperature Yesterday

Maximum temperature yesterday: 65 °F (at 4:51 pm)
Minimum temperature yesterday: 35 °F (at 5:51 am)
Average temperature yesterday: 51 °F

High & Low Weather Summary for the Past Weeks

 TemperatureHumidityPressure
High75 °F (Mar 28, 12:51 pm)100% (Apr 7, 8:22 am)30.19 "Hg (Apr 7, 8:22 am)
Low34 °F (Apr 3, 6:51 am)23% (Apr 3, 4:51 pm)29.64 "Hg (Mar 29, 4:51 am)
Average51 °F69%29.97 "Hg
* Reported Mar 23 8:51 am — Apr 7 8:58 am, Columbus Zoo. Weather by CustomWeather, © 2020

Note: Actual official high and low records may vary slightly from our data, if they occured in-between our weather recording intervals... More about our weather records

Columbus Zoo Weather History for the Previous 24 Hours

Scroll right to see more
 ConditionsComfort  
Time TempWeatherWind HumidityBarometerVisibility
8:58 am
Tue, Apr 7
54 °FRain. Fog.No wind97%29.96 "Hg1 mi
8:22 am54 °FStrong thunderstorms. Fog.No wind100%29.96 "Hg1 mi
7:51 am53 °FStrong thunderstorms. Fog.7 mph93%29.95 "Hg1 mi
7:41 am54 °FThunderstorms. Fog.12 mph86%29.97 "Hg1 mi
7:08 am55 °FThunderstorms. Cloudy.3 mph77%29.91 "Hg7 mi
6:59 am55 °FThundershowers. Passing clouds.3 mph77%29.92 "Hg7 mi
5:51 am54 °FMostly cloudy.5 mph80%29.92 "Hg8 mi
4:51 am51 °FOvercast.3 mph86%29.92 "Hg9 mi
3:51 am54 °FPassing clouds.3 mph80%29.95 "Hg9 mi
2:51 am57 °FPassing clouds.No wind72%29.95 "Hg9 mi
1:51 am59 °FMostly cloudy.3 mph67%29.98 "Hg9 mi
12:51 am59 °FMostly cloudy.No wind67%29.99 "Hg9 mi
11:51 pm
Mon, Apr 6
60 °FPartly cloudy.No wind62%29.99 "Hg10 mi
10:51 pm60 °FPartly cloudy.No wind60%29.99 "Hg10 mi
9:51 pm62 °FLight rain. Mostly cloudy.5 mph54%30.00 "Hg10 mi
8:51 pm63 °FMostly cloudy.No wind47%30.00 "Hg10 mi
7:51 pm64 °FPartly sunny.No wind45%30.00 "Hg10 mi
6:51 pm64 °FScattered clouds.5 mph43%30.00 "Hg10 mi
5:51 pm65 °FScattered clouds.7 mph36%30.01 "Hg10 mi
4:51 pm65 °FPassing clouds.7 mph26%30.02 "Hg10 mi
3:51 pm64 °FSunny.7 mph23%30.04 "Hg10 mi
2:51 pm63 °FSunny.6 mph25%30.07 "Hg10 mi
1:51 pm60 °FSunny.6 mph30%30.09 "Hg10 mi
12:51 pm58 °FSunny.7 mph36%30.12 "Hg10 mi
11:51 am54 °FSunny.5 mph45%30.16 "Hg10 mi
10:51 am50 °FSunny.6 mph57%30.16 "Hg10 mi
Weather by CustomWeather, © 2020

See weather overview

Advertising